Probability
0 0 0 0 0 0 0 0 0 0 0 0 0 0 0 0 0 0 0 0 0 0 0 0 0 0 0 0 0 0 0 0 0 0 0 0 0 0 0 0 0 0 0
0 0 0 0 0 0 0 0 0 0 0 0 0 0 0 0 0 0 0 0 0 0 0 0 0 0 0 0 0 0 0 0 0 0 0 0 0 0 0 0 0 0 0
0 0 0 0 0 0 0 0 0 0 0 0 0 0 0 0 0 0 0 0 0 0 0 0 0 0 0 0 0 0 0 0 0 0 0 0 0 0 0 0 0 0 0
0 0 0 0 0 0 0 0 0 0 0 0 0 0 0 0 0 0 0 0 0 0 0 0 0 0 0 0 0 0 0 0 0 0 0 0 0 0 0 0 0 0 0
0 0 0 0 0 0 0 0 0 0 0 0 0 0 0 0 0 0 0 0 0 0 0 0 0 0 0 0 0 0 0 0 0 0 0 0 0 0 0 0 0 0 0
0 0 0 0 0 0 0 0 0 0 0 0 0 0 0 0 0 0 0 0 0 0 0 0 0 0 0 0 0 0 0 0 0 0 0 0 0 0 0 0 0 0 0
0 0 0 0 0 0 0 0 0 0 0 0 0 0 0 0 0 0 0 0 0 0 0 0 0 0 0 0 0 0 0 0 0 0 0 0 0 0 0 0 0 0 0
0 0 0 0 0 0 0 0 0 0 0 0 0 0 0 0 0 0 0 0 0 0 0 0 0 0 0 0 0 0 0 0 0 0 0 0 0 0 0 0 0 0 0
0 0 0 0 0 0 0 0 0 0 0 0 0 0 0 0 0 0 0 0 0 0 0 0 0 0 0 0 0 0 0 0 0 0 0 0 0 0 0 0 0 0 0
0 0 0 0 0 0 0 0 0 0 0 0 0 0 0 0 0 0 0 0 0 0 0 0 0 0 0 0 0 0 0 0 0 0 0 0 0 0 0 0 0 0 0
0 0 0 0 0 0 0 0 0 0 0 0 0 0 0 0 0 0 0 0 0 0 0 0 0 0 0 0 0 0 0 0 0 0 0 0 0 0 0 0 0 0 0
0 0 0 0 0 0 0 0 0 0 0 0 0 0 0 0 0 0 0 0 0 0 0 0 0 0 0 0 0 0 0 0 0 0 0 0 0 0 0 0 0 0 0
0 0 0 0 0 0 0 0 0 0 0 0 0 0 0 0 0 0 0 0 0 0 0 0 0 0 0 0 0 0 0 0 0 0 0 0 0 0 0 0 0 0 0
0 0 0 0 0 0 0 0 0 0 0 0 0 0 0 0 0 0 0 0 0 0 0 0 0 0 0 0 0 0 0 0 0 0 0 0 0 0 0 0 0 0 0
0 0 0 0 0 0 0 0 0 0 0 0 0 0 0 0 0 0 0 0 0 0 0 0 0 0 0 0 0 0 0 0 0 0 0 0 0 0 0 0 0 0 0
0 0 0 0 0 0 0 0 0 0 0 0 0 0 0 0 0 0 0 0 0 0 0 0 0 0 0 0 0 0 0 0 0 0 0 0 0 0 0 0 0 0 0
0 0 0 0 0 0 0 0 0 0 0 0 0 0 0 0 0 0 0 0 0 0 0 0 0 0 0 0 0 0 0 0 0 0 0 0 0 0 0 0 0 0 0
0 0 0 0 0 0 0 0 0 0 0 0 0 0 0 0 0 0 0 0 0 0 0 0 0 0 0 0 0 0 0 0 0 0 0 0 0 0 0 0 0 0 0
0 0 0 0 0 0 0 0 0 0 0 0 0 0 0 0 0 0 0 0 0 0 0 0 0 0 0 0 0 0 0 0 0 0 0 0 0 0 0 0 0 0 0
0 0 0 0 0 0 0 0 0 0 0 0 0 0 0 0 0 0 0 0 0 0 0 0 0 0 0 0 0 0 0 0 0 0 0 0 0 0 0 0 0 0 0
0 0 0 0 0 0 0 0 0 0 0 0 0 0 0 0 0 0 0 0 0 0 0 0 0 0 0 0 0 0 0 0 0 0 0 0 0 0 0 0 0 0 0
0 0 0 0 0 0 0 0 0 0 0 0 0 0 0 0 0 0 0 0 0 0 0 0 0 0 0 0 0 0 0 0 0 0 0 0 0 0 0 0 0 0 0
0 0 0 0 0 0 0 0 0 0 0 0 0 0 0 0 0 0 0 0 0 0 0 0 0 0 0 0 0 0 0 0 0 0 0 0 0 0 0 0 0 0 0
0 0 0 0 0 0 0 0 0 0 0 0 0 0 0 0 0 0 0 0 0 0 0 0 0 0 0 0 0 0 0 0 0 0 0 0 0 0 0 0 0 0 0
0 0 0 0 0 0 0 0 0 0 0 0 0 0 0 0 0 0 0 0 0 0 0 0 0 0 0 0 0 0 0 0 0 0 0 0 0 0 0 0 0 0 0
0 0 0 0 0 0 0 0 0 0 0 0 0 0 0 0 0 0 0 0 0 0 0 0 0 0 0 0 0 0 0 0 0 0 0 0 0 0 0 0 0 0 0
Height
5633 5634 5636 5638 5641 5643 5646 5648 5649 5651 5653 5656 5659 5661 5663 5666 5668 5670 5672 5675 5677 5680 5683 5685 5687 5689 5690 5691 5692 5693 5694 5695 5697 5700 5701 5701 5701 5701 5702 5702 5702 5703 5703
5628 5629 5630 5632 5633 5636 5637 5639 5640 5642 5643 5645 5647 5650 5652 5654 5655 5657 5659 5661 5663 5666 5668 5670 5672 5674 5675 5676 5678 5679 5681 5682 5683 5685 5687 5687 5688 5689 5689 5689 5689 5690 5690
5625 5624 5625 5626 5627 5628 5629 5630 5631 5632 5633 5634 5636 5638 5639 5641 5642 5643 5645 5646 5648 5651 5653 5655 5657 5659 5660 5662 5663 5665 5667 5668 5669 5670 5672 5673 5674 5675 5675 5676 5676 5676 5677
5622 5621 5621 5621 5621 5621 5622 5623 5624 5624 5624 5625 5625 5626 5627 5628 5629 5630 5631 5632 5634 5636 5638 5640 5642 5644 5646 5647 5649 5650 5652 5653 5654 5655 5657 5658 5659 5660 5660 5661 5662 5662 5663
5619 5618 5617 5616 5616 5615 5616 5616 5616 5616 5616 5615 5615 5615 5615 5615 5616 5616 5616 5617 5619 5621 5623 5625 5627 5629 5631 5632 5634 5635 5636 5637 5638 5639 5641 5642 5643 5644 5646 5647 5647 5648 5649
5616 5614 5613 5611 5610 5610 5609 5609 5608 5608 5606 5605 5604 5603 5603 5603 5603 5603 5603 5603 5604 5606 5608 5610 5612 5614 5617 5617 5619 5620 5621 5622 5623 5624 5625 5627 5628 5630 5631 5631 5632 5633 5635
5613 5611 5609 5606 5605 5603 5602 5601 5600 5599 5597 5595 5594 5592 5591 5590 5590 5590 5589 5589 5590 5592 5593 5595 5598 5600 5601 5603 5604 5605 5605 5606 5607 5608 5610 5611 5613 5615 5616 5617 5618 5619 5621
5609 5607 5604 5601 5599 5597 5596 5594 5592 5590 5588 5586 5583 5581 5580 5579 5578 5577 5576 5575 5576 5577 5579 5581 5583 5585 5586 5588 5588 5589 5590 5591 5592 5593 5596 5597 5598 5599 5600 5602 5603 5605 5607
5605 5602 5600 5597 5594 5592 5590 5587 5585 5582 5579 5576 5573 5571 5569 5567 5566 5564 5563 5562 5563 5564 5566 5567 5569 5571 5572 5573 5574 5574 5575 5576 5577 5578 5580 5582 5583 5584 5585 5586 5588 5590 5593
5601 5598 5595 5592 5589 5586 5584 5581 5578 5574 5571 5567 5564 5561 5558 5556 5554 5552 5551 5550 5551 5552 5553 5554 5555 5556 5557 5558 5559 5560 5561 5562 5563 5564 5565 5566 5567 5569 5570 5572 5575 5577 5580
5596 5593 5590 5587 5584 5581 5577 5574 5571 5567 5563 5560 5556 5553 5550 5547 5544 5542 5539 5538 5539 5539 5540 5541 5542 5543 5543 5544 5545 5546 5547 5548 5548 5549 5550 5551 5553 5555 5557 5558 5561 5564 5567
5591 5588 5585 5582 5578 5575 5571 5567 5563 5559 5555 5552 5548 5545 5541 5538 5535 5532 5530 5528 5528 5528 5528 5529 5529 5530 5530 5531 5531 5532 5533 5534 5534 5535 5536 5537 5539 5541 5543 5545 5547 5550 5553
5586 5583 5579 5576 5572 5568 5564 5560 5556 5551 5547 5544 5540 5536 5532 5528 5525 5522 5520 5518 5516 5516 5516 5516 5516 5516 5516 5516 5517 5518 5518 5519 5520 5521 5522 5524 5526 5528 5529 5531 5533 5536 5539
5579 5575 5572 5568 5564 5560 5556 5552 5547 5543 5539 5535 5531 5527 5523 5519 5515 5513 5510 5508 5505 5504 5503 5503 5502 5502 5502 5503 5503 5504 5505 5506 5507 5508 5509 5511 5512 5514 5516 5519 5521 5524 5527
5571 5567 5564 5560 5556 5551 5547 5542 5538 5533 5529 5525 5521 5517 5513 5509 5506 5502 5499 5497 5495 5493 5491 5490 5490 5490 5490 5490 5491 5491 5492 5492 5494 5495 5496 5498 5500 5502 5504 5506 5509 5512 5515
5562 5559 5555 5551 5546 5542 5537 5532 5527 5523 5518 5514 5510 5506 5502 5499 5496 5492 5489 5486 5483 5481 5479 5478 5478 5478 5478 5478 5479 5479 5479 5480 5481 5482 5484 5486 5488 5490 5492 5494 5497 5500 5503
5552 5548 5544 5540 5536 5531 5526 5521 5517 5512 5507 5503 5498 5494 5491 5487 5484 5481 5478 5475 5472 5469 5467 5466 5466 5466 5466 5465 5466 5467 5467 5468 5469 5470 5472 5474 5476 5478 5480 5483 5486 5488 5491
5541 5538 5534 5530 5525 5521 5516 5511 5506 5502 5497 5492 5488 5483 5480 5476 5472 5469 5466 5463 5460 5457 5456 5455 5454 5454 5453 5454 5454 5455 5455 5456 5457 5458 5460 5462 5464 5467 5469 5472 5474 5477 5480
5530 5527 5523 5518 5514 5510 5506 5501 5496 5491 5487 5482 5477 5473 5468 5464 5460 5457 5453 5451 5448 5446 5445 5443 5442 5442 5441 5442 5442 5443 5443 5444 5446 5447 5449 5451 5453 5456 5458 5460 5463 5465 5468
5519 5515 5511 5507 5503 5499 5494 5489 5485 5480 5475 5471 5466 5462 5457 5453 5449 5445 5442 5439 5437 5435 5433 5432 5431 5430 5430 5430 5430 5431 5432 5433 5434 5436 5438 5440 5442 5445 5447 5449 5452 5455 5458
5508 5504 5500 5496 5491 5487 5482 5477 5473 5468 5464 5459 5455 5451 5446 5442 5438 5434 5430 5427 5425 5423 5421 5420 5419 5418 5418 5418 5418 5419 5420 5422 5423 5425 5427 5429 5431 5433 5436 5438 5441 5444 5447
5496 5492 5488 5484 5479 5475 5470 5465 5461 5456 5452 5448 5443 5439 5434 5430 5426 5422 5418 5416 5413 5411 5409 5408 5407 5407 5407 5407 5407 5408 5409 5411 5413 5414 5416 5418 5419 5422 5424 5427 5430 5433 5436
5484 5480 5476 5472 5467 5463 5458 5454 5449 5444 5440 5435 5431 5427 5423 5419 5414 5411 5408 5405 5402 5400 5398 5397 5397 5396 5396 5396 5396 5397 5399 5400 5402 5403 5405 5407 5409 5411 5414 5417 5420 5423 5426
5472 5468 5464 5460 5456 5451 5447 5442 5437 5432 5428 5424 5420 5416 5411 5407 5404 5400 5397 5395 5392 5390 5388 5387 5387 5386 5386 5386 5386 5387 5389 5390 5391 5393 5394 5396 5398 5401 5404 5407 5410 5413 5416
5460 5456 5452 5448 5444 5440 5435 5430 5426 5421 5417 5413 5409 5405 5401 5397 5394 5391 5388 5385 5383 5381 5379 5378 5377 5377 5377 5377 5377 5378 5378 5380 5381 5382 5384 5386 5388 5391 5394 5397 5400 5403 5406
5448 5444 5440 5437 5432 5428 5424 5419 5415 5410 5406 5402 5398 5394 5391 5388 5385 5382 5379 5376 5374 5372 5370 5369 5368 5368 5367 5368 5368 5368 5369 5370 5371 5372 5374 5377 5379 5381 5384 5387 5390 5393 5396
Wind_Speed
15 19 23 26 30 32 32 34 35 37 38 41 44 47 48 49 51 53 54 55 57 57 57 57 57 57 56 57 58 58 58 57 55 54 53 52 51 50 50 49 48 47 46
13 16 18 21 25 27 29 29 32 34 36 39 41 43 45 48 50 51 53 55 57 58 57 57 57 57 57 58 58 59 59 59 58 56 55 53 52 52 52 51 49 48 47
10 12 15 17 20 23 25 26 28 29 32 36 39 41 44 46 48 50 52 53 55 56 57 57 57 57 57 57 58 58 58 58 57 56 55 55 54 54 53 51 50 49 49
8 9 12 14 16 18 20 24 26 28 29 32 36 39 41 43 45 47 49 51 54 54 55 56 56 57 58 57 56 57 57 57 56 58 57 56 56 56 54 52 50 50 50
8 10 11 13 15 17 20 22 25 27 30 31 34 37 40 42 43 45 47 50 52 53 54 54 55 56 55 56 56 55 56 57 57 57 57 56 55 54 53 52 52 50 49
11 12 13 15 16 18 20 22 24 26 28 30 32 35 38 41 43 45 46 47 49 51 52 53 54 54 54 54 54 55 55 56 56 55 55 54 52 51 51 52 52 51 51
12 14 15 16 18 20 21 23 25 28 30 31 32 34 36 38 41 44 46 46 48 49 50 51 51 52 52 52 52 53 54 54 54 54 55 54 52 51 51 51 52 51 50
13 15 16 16 17 19 21 23 25 28 30 32 34 34 36 38 40 42 44 46 47 47 48 48 49 49 51 51 51 52 53 53 54 54 52 52 52 53 53 53 52 52 52
15 16 17 18 18 20 21 22 24 26 28 30 32 33 35 36 37 39 41 43 44 44 45 46 47 48 50 50 50 49 50 51 53 52 52 52 51 52 53 52 51 50 49
16 17 18 20 21 22 23 25 26 27 28 29 31 32 32 33 34 36 38 40 42 43 44 45 46 47 47 48 49 49 49 49 50 51 51 51 51 50 50 50 49 49 49
20 20 21 22 23 24 25 26 28 29 30 30 31 31 31 32 32 34 37 38 39 41 42 43 44 45 46 47 48 48 47 47 48 49 50 50 50 50 49 49 49 49 49
23 24 25 26 27 28 29 29 30 30 31 31 31 32 33 33 33 33 35 36 37 39 40 42 42 43 45 46 47 48 48 47 48 49 49 49 49 49 48 48 48 48 48
25 26 27 29 30 31 32 31 31 31 31 31 31 32 33 33 33 35 35 36 37 38 39 41 41 43 45 46 46 47 47 46 46 47 47 47 47 46 46 46 46 46 47
28 28 30 31 33 34 33 33 33 33 33 33 34 34 34 34 34 35 36 37 38 39 40 41 42 42 43 44 44 44 44 43 43 44 44 45 45 45 44 44 44 44 44
30 31 32 33 34 34 34 34 35 35 36 36 36 37 36 36 36 36 37 37 37 38 39 40 41 40 39 40 41 42 43 43 43 43 43 44 44 44 43 42 42 42 42
32 33 34 34 35 36 37 37 37 37 37 37 37 37 37 36 36 36 37 37 38 38 39 38 38 38 39 40 40 40 42 42 42 42 42 42 42 41 41 40 41 41 41
34 35 35 36 37 37 38 38 37 36 36 37 37 37 37 37 37 36 36 37 38 37 36 37 37 38 38 39 39 40 40 40 40 40 40 40 40 40 40 39 40 40 39
36 37 37 37 37 37 37 37 37 37 37 38 38 37 37 37 37 37 37 37 37 36 36 36 37 37 37 37 37 38 38 38 39 39 39 39 38 38 38 38 38 38 38
38 38 38 37 37 37 38 38 39 39 39 39 39 38 38 38 38 37 37 36 36 36 35 35 35 35 35 36 37 36 36 36 36 37 38 37 37 37 38 37 37 37 37
37 37 37 37 38 39 40 40 40 40 39 39 38 38 38 38 37 37 36 36 36 36 35 35 35 35 34 35 36 37 36 35 35 35 35 36 36 36 36 36 36 36 36
37 37 38 38 39 40 40 40 40 40 40 40 39 39 38 38 37 37 36 36 35 35 34 34 34 34 34 34 35 35 36 35 35 35 35 34 35 35 36 35 34 34 35
38 38 39 39 40 40 40 40 40 40 40 40 40 39 39 38 37 37 36 35 34 33 32 32 32 33 33 33 34 34 34 33 33 33 34 34 34 34 35 35 34 34 35
39 39 40 40 40 40 40 40 40 40 39 38 38 38 37 37 36 36 35 33 32 30 30 30 30 30 30 31 31 32 32 32 31 31 32 32 33 34 34 34 34 34 34
40 40 40 40 40 40 40 40 40 39 38 38 37 37 36 36 34 34 32 32 31 30 29 29 29 29 28 28 29 30 31 31 31 31 31 32 32 33 34 34 34 34 34
40 40 40 40 40 40 40 40 40 39 38 38 37 36 34 33 32 31 31 30 30 29 29 29 29 29 28 28 28 28 29 29 30 31 31 31 32 33 33 34 34 34 35
40 40 40 40 40 41 41 40 39 38 37 36 35 34 33 31 30 30 29 29 28 27 27 27 26 27 28 28 29 28 28 28 29 29 29 30 31 32 32 33 33 34 34
Wind_Direction
253 246 242 242 243 245 246 248 248 247 247 247 248 248 249 249 249 250 250 249 250 251 252 255 256 256 255 255 256 257 258 260 262 262 262 263 265 266 268 269 270 271 272
263 259 254 248 245 245 248 251 250 249 249 250 250 250 250 250 251 252 252 252 252 252 254 255 254 255 255 255 256 257 258 259 261 262 262 262 264 266 268 269 269 269 269
272 268 263 259 255 253 254 254 253 255 255 254 254 254 254 253 253 254 254 253 253 254 255 255 255 255 256 256 256 256 258 260 261 263 263 262 263 265 266 267 267 267 268
284 278 270 265 262 260 259 260 260 262 264 264 262 260 259 257 257 256 256 255 255 255 256 256 256 256 256 256 257 258 259 259 261 262 262 263 263 264 264 265 266 267 266
302 293 285 278 275 270 266 264 265 267 269 270 269 267 263 260 258 259 258 256 256 256 256 256 257 256 255 257 258 258 259 260 260 261 262 263 263 264 264 264 264 265 265
307 306 297 285 282 279 275 273 272 273 274 274 273 270 266 262 261 260 259 258 257 256 256 255 256 256 257 257 257 258 259 260 261 261 261 261 263 262 262 263 263 264 264
308 306 302 295 289 285 282 281 280 278 278 278 278 275 270 267 265 263 261 259 257 256 255 255 255 256 256 256 257 258 258 258 259 261 261 261 261 260 261 262 262 262 262
317 316 313 306 302 296 290 287 285 283 281 279 279 275 271 268 266 265 264 262 260 257 256 255 255 255 256 257 258 258 258 257 257 259 260 262 260 259 260 260 261 262 262
322 321 319 316 310 304 299 297 295 293 291 286 284 280 275 272 270 269 268 265 261 257 256 255 255 255 256 257 257 257 258 258 257 258 259 260 261 260 260 260 259 260 260
316 318 317 317 315 312 307 305 303 302 300 297 295 291 286 280 276 273 271 267 261 257 256 256 256 257 256 255 257 258 258 259 258 258 259 259 260 260 260 258 257 258 258
311 312 314 315 314 313 312 309 306 305 303 302 300 297 294 289 284 278 274 269 264 260 259 259 259 258 258 257 259 260 260 260 260 259 259 259 259 259 259 257 257 256 257
308 309 311 312 312 312 313 311 309 308 306 304 302 300 299 294 289 285 280 274 270 267 263 262 263 263 262 261 260 261 261 261 261 261 261 260 258 259 257 257 255 254 255
307 308 308 310 311 311 311 310 309 307 306 305 304 304 302 298 292 288 285 280 276 272 267 266 266 266 265 263 261 261 262 263 262 261 260 258 256 256 255 255 253 253 255
305 306 308 309 310 310 309 309 308 306 305 304 303 303 302 299 295 291 288 283 280 275 271 268 268 268 267 265 263 262 262 262 262 260 258 255 254 254 254 253 253 253 253
304 305 305 306 307 307 307 307 307 305 304 302 302 302 301 299 296 293 290 285 281 278 274 271 268 266 266 264 263 263 262 262 261 259 256 253 252 251 252 252 252 253 254
302 304 305 306 306 306 307 306 305 304 304 303 301 300 300 300 299 295 291 287 283 281 276 271 268 266 266 265 263 262 262 261 260 258 256 253 252 251 252 251 252 253 254
301 303 304 304 305 305 306 306 306 305 305 305 304 301 299 299 298 296 293 289 285 282 278 273 270 269 267 267 264 262 260 259 258 257 255 253 252 251 251 251 251 251 251
299 301 302 302 303 304 305 305 305 305 305 305 304 303 301 299 298 295 293 291 288 285 282 277 272 270 268 266 263 261 259 258 257 255 254 252 252 252 251 252 251 250 249
298 299 300 301 302 303 304 304 304 303 303 303 303 302 301 300 299 297 293 290 288 286 283 280 274 270 268 265 262 260 258 257 256 255 254 252 252 252 250 249 249 248 247
299 299 299 300 301 302 303 303 304 303 303 303 303 303 301 300 299 297 294 291 288 286 283 280 275 270 267 265 263 259 257 256 255 255 253 251 250 250 249 247 247 246 246
298 298 299 300 301 302 302 303 303 303 302 303 303 303 301 300 298 297 294 291 289 287 282 279 275 271 268 265 262 259 256 255 254 253 253 251 249 249 248 246 245 244 244
296 297 298 300 301 303 303 303 303 302 302 303 302 302 301 299 298 298 296 293 290 287 283 278 274 271 269 266 263 259 256 256 256 255 254 251 248 247 245 244 244 243 243
295 296 298 300 301 302 304 304 304 303 303 303 303 303 302 300 298 298 297 295 292 288 283 279 275 272 269 267 263 259 257 257 256 255 253 250 247 244 241 241 241 242 242
295 296 298 300 301 302 303 304 304 304 302 302 303 303 302 301 299 297 296 295 293 288 284 280 276 272 269 266 263 259 257 256 254 253 251 248 245 243 242 241 241 241 241
294 296 297 299 300 302 302 303 304 304 303 302 302 302 302 301 299 298 297 296 294 289 285 280 275 270 267 265 264 262 259 256 253 251 249 246 243 242 242 241 241 240 241
293 295 296 298 300 301 302 303 302 303 303 302 301 300 300 300 299 298 297 296 294 291 287 281 275 270 268 265 263 262 260 257 255 252 249 246 244 242 241 240 240 241 241